Погода в Сулхаре

Россия / Республика Бурятия     51°44′50″N   110°09′36″E
темп.,
°C
ветер,
м/с
пор.,
м/с
влажн.,
%
обл.,
%
осадки,
мм/ч
давл.,
гПа
погр.,
м
14 апреля, ср
ср1423:00+2з51159100 0.0 1011994
02:000з61275100 0.0 10121024
05:00−2зсз4118190 0.1 1014656
08:00−1зсз5961100 0.1 1015815
11:00+2сз6736100 0.0 10151656
14:00+4сз682799 0.0 10132358
17:00+3сз6829100 0.0 10132522
20:00−1сз41047100 0.0 1015437
15 апреля, чт
чт1523:00−3зсз31062100 0.0 1016377
02:00−5зюз28692 0.0 1015227
05:00−6зюз39735 0.0 1014311
08:00−2з48575 0.0 1013761
11:00+2зсз583092 0.0 10101879
14:00+4сз5730100 0.0 10092769
17:00+3зсз574499 0.3 10091684
20:000сз41062100 0.9 1013608
16 апреля, пт
пт1623:00−3з410744 0.0 1016429
02:00−5з410855 0.0 1019366
05:00−6з4108131 0.0 1021375
08:00−2з57585 0.0 1022741
11:00+3зсз57316 0.0 10201694
14:00+6зсз573299 0.0 10171885
17:00+7зсз583436 0.0 10161687
20:00+2з38585 0.0 1017205
17 апреля, сб
сб1723:00−1ююз23730 0.0 101751
02:00−2ююз22786 0.0 101620
05:00−3ю22785 0.0 101516
08:00+4ю12455 0.0 1013225
11:00+12з25275 0.0 10081387
14:00+16зюз36215 0.0 10052344
17:00+15з35225 0.0 10032535
20:00+7сз11420 0.0 100610
18 апреля, вс
вс1823:00+4ю11490 0.0 100610
02:00+2ю11565 0.0 100710
05:00+1ююз1161100 0.0 100710
08:00+6з114571 0.0 1007171
11:00+13сз34310 0.0 10061063
14:00+15сз45265 0.0 10042195
17:00+14сз453016 0.0 10052201
20:00+8зсз495627 0.0 1007314